Overview Statistics Trail Chart Weather Telemetry Raw packets
 

This is the latest recevied weather packets stored in our database for station/object IT9KVB-11. If no packets are shown the sender has not sent any weather packets the latest 10 day(s).

<< 1 2 3 4 >>
Time Temp. Humidity Pressure Rain* Wind** Luminosity Snow
1788619589 32.78° C 29% 928 hPa 0 mm 22.8 m/s, 0° - -
1788618673 33.33° C 29% 928 hPa 0 mm 22.8 m/s, 0° - -
1788617757 32.78° C 29% 928 hPa 0 mm 22.8 m/s, 0° - -
1788616842 33.33° C 29% 928 hPa 0 mm 22.8 m/s, 0° - -
1788615926 33.89° C 29% 927 hPa 0 mm 22.8 m/s, 0° - -
1788615010 33.89° C 29% 927 hPa 0 mm 22.8 m/s, 0° - -
1788614094 33.33° C 27% 927 hPa 0 mm 22.8 m/s, 0° - -
1788613179 33.89° C 27% 927 hPa 0 mm 22.8 m/s, 0° - -
1788612263 32.78° C 27% 927 hPa 0 mm 22.8 m/s, 0° - -
1788611348 32.78° C 27% 927 hPa 0 mm 22.8 m/s, 0° - -
1788610432 32.22° C 27% 927 hPa 0 mm 22.8 m/s, 0° - -
1788609516 31.11° C 23% 927 hPa 0 mm 22.8 m/s, 0° - -
1788608600 33.33° C 23% 927 hPa 0 mm 22.8 m/s, 0° - -
1788607685 33.33° C 23% 927 hPa 0 mm 22.8 m/s, 0° - -
1788606769 30.56° C 23% 927 hPa 0 mm 22.8 m/s, 0° - -
1788605853 30.56° C 28% 927 hPa 0 mm 22.8 m/s, 0° - -
1788604938 30.56° C 28% 927 hPa 0 mm 22.8 m/s, 0° - -
1788604022 31.11° C 28% 927 hPa 0 mm 22.8 m/s, 0° - -
1788603106 31.67° C 27% 927 hPa 0 mm 22.8 m/s, 0° - -
1788602191 31.67° C 28% 927 hPa 0 mm 22.8 m/s, 0° - -
1788601275 32.22° C 27% 927 hPa 0 mm 22.8 m/s, 0° - -
1788600359 30.56° C 30% 927 hPa 0 mm 22.8 m/s, 0° - -
1788599443 22.78° C 30% 927 hPa 0 mm 22.8 m/s, 0° - -
1788598528 22.78° C 30% 927 hPa 0 mm 22.8 m/s, 0° - -
1788597612 22.78° C 30% 927 hPa 0 mm 22.8 m/s, 0° - -

* Rain latest hour (hover to see other rain measurements)
** Current wind speed in m/s (hover to see current wind gust speed)